星链-35775(STARLINK-35775)

导读

STARLINK-35775是美国SpaceX公司星链(Starlink)星座的一颗低轨互联网通信卫星,于2025年12月11日发射入轨。星链项目旨在通过大规模低轨卫星组网,为全球提供高速低延迟互联网接入,尤其覆盖偏远地区与特殊场景。作为美国主导的大规模星座计划的一员,该卫星将服务全球宽带互联,同时也面临太空轨道安全与天文观测影响等争议。

Basic Information
目录编号:
67038
目录名称:
STARLINK-35775
国际标识:
2025-294J
轨道中心:
EARTH
卫星名称:
星链-35775
卫星全名:
星链-35775(STARLINK-35775)
卫星状态:
在轨 (已飞行274 天)
发射日期:
2025-12-11 UTC
国别 :
美国 (US)
星等 :
--
This satellite is enrolled in the Space Conjunction Data Service (SCDS) and the current flight risk assessment level is: High Risk
Orbit Information
数据来源 国际轨道数据 AOE轨道数据
星历时间 2026-09-10T07:04:15+0800
1天前
查看轨道信息
2026-09-05T12:00:00+0800
6天前
查看轨道信息
半长轴 6861.217km 6861.201km
偏心率 0.0000677 0.0001223
轨道倾角 43.004° 43.002°
近地点辐角 294.958° 297.189°
升交点赤经 77.191° 104.272°
平近点角 65.120° 305.105°
近地点 482.615km 482.224km
远地点 483.545km 483.904km
周期 94.267分钟 94.267分钟
每日圈数 15.275699 15.275753
Detailed Information
固有亮度:
5
最大亮度:
2.5
卫星平台:
Starlink V1.0
覆盖范围:
全球
运营商:
太空探索技术公司
运营商所在国:
美国
制造商(研发单位):
太空探索技术公司
制造商所在国:
美国
使用方式:
暂无
Satellite Introduction
Starlink 计划是 SpaceX 推出的全球卫星互联网项目,通过发射低轨道卫星,为全球尤其是偏远地区提供高速、低延迟的互联网服务。自 2019 年起,Starlink 已部署数千颗卫星,旨在缩小全球数字鸿沟,推动互联网普及。该项目还为军事、航空等行业提供通信支持,带来广泛经济效益。
2D Orbit Map
3D Orbit Map
Orbit Altitude Analysis Chart
Orbit Inclination Analysis Chart
Orbit Comprehensive Analysis Chart
View Comprehensive Chart
Conjunction Data List
Event ID Objects TCA Miss Dist (km) Collision Risk Probability Collision Risk Index (CRI) Action
CDM_260913-061205-642506-703821
2026-09-13T
06:12:17+0000
0.414 km
远距离
2.433454E-4 高风险 0.83
CDM_260913-184605-932806-703822
2026-09-13T
18:46:43+0000
0.491 km
远距离
1.700108E-4 高风险 0.8
CDM_260912-221405-814006-703821
2026-09-12T
22:14:39+0000
0.526 km
远距离
1.22279E-4 高风险 0.77
CDM_260913-100005-814006-703821
2026-09-13T
10:00:48+0000
0.569 km
远距离
9.93962E-5 中风险 0.75
CDM_260913-171005-774306-703821
2026-09-13T
17:10:08+0000
0.919 km
远距离
2.666804E-5 中风险 0.64
CDM_260914-063205-932806-703821
2026-09-14T
06:32:51+0000
0.976 km
远距离
2.244338E-5 中风险 0.62
CDM_260914-045605-774306-703821
2026-09-14T
04:56:16+0000
0.975 km
远距离
2.177221E-5 中风险 0.62
CDM_260906-174405-511206-703823
2026-09-06T
17:44:23+0000
1.032 km
极远距离
2.151687E-5 中风险 0.62
CDM_260913-184405-774906-703821
2026-09-13T
18:44:58+0000
1.032 km
极远距离
1.809206E-5 中风险 0.6
CDM_260912-180305-550006-703821
2026-09-12T
18:03:30+0000
1.122 km
极远距离
8.557218E-6 低风险 0.54
Miss Distance Evolution Trend with All Objects
Collision Probability Evolution Trend with All Objects